Wind_Speed
49 51 49 47 45 43 43 42 45 46 47 47 48 49 46 48 49 49 50 53 54 54 54 54 58 61 63 66 66 68 63 62 63 65 67 61 64 66 72 79 75 77 75 75 76
47 45 44 43 44 47 49 49 51 50 49 51 52 54 52 55 57 58 59 60 57 58 60 60 59 61 60 60 61 65 68 62 65 65 63 65 69 72 75 82 81 80 77 76 79
50 52 50 49 50 50 51 54 55 56 57 57 58 59 58 60 62 63 65 67 68 68 67 67 67 66 64 66 70 69 67 64 64 65 68 70 78 80 82 86 87 84 77 76 77
53 53 54 56 56 56 58 59 60 61 63 63 63 64 65 67 70 70 71 72 72 74 74 73 71 71 72 70 71 75 65 62 63 69 72 79 84 88 82 86 87 84 76 75 78
60 61 62 62 63 63 65 67 69 70 72 72 72 73 72 74 75 76 76 75 78 78 77 77 77 78 79 78 72 71 68 69 72 77 86 86 87 85 81 80 81 76 70 68 70
68 68 68 69 69 70 71 71 73 75 75 76 77 78 79 79 80 81 82 85 84 82 81 82 83 82 81 79 76 71 71 74 79 87 87 88 87 79 76 74 72 67 65 60 59
77 77 76 77 77 77 76 75 76 78 79 80 81 82 84 85 87 87 88 86 87 87 86 87 86 83 78 76 72 72 73 80 89 87 86 86 77 70 69 68 62 62 63 60 63
79 77 79 80 82 83 81 79 80 81 83 86 87 87 89 89 90 90 90 91 90 89 86 86 84 80 80 73 73 75 79 81 86 87 83 77 65 66 63 57 56 56 54 57 58
85 86 86 86 86 86 86 85 85 86 87 89 90 91 92 91 93 90 91 87 86 86 84 82 83 80 79 78 80 80 81 85 84 81 78 64 62 58 53 51 49 48 49 52 52
88 89 90 90 92 91 91 90 88 87 90 92 93 93 91 90 92 94 93 89 86 85 88 89 89 86 86 86 85 84 83 84 78 73 62 58 57 49 45 45 42 41 44 44 43
94 94 93 95 95 94 94 96 97 94 89 92 91 90 90 90 89 90 90 93 91 91 93 96 94 94 94 91 89 83 81 73 69 57 56 53 48 40 39 39 36 35 33 32 35
101 100 100 101 101 101 102 101 98 99 95 95 95 97 95 97 95 95 95 95 98 98 100 100 102 101 98 86 84 79 74 64 56 50 52 42 37 34 32 33 31 28 29 31 34
105 105 103 105 105 106 106 106 103 99 95 97 100 102 102 102 101 102 100 101 106 106 102 103 103 91 80 78 78 71 61 55 48 46 41 34 31 29 29 29 28 28 30 32 37
106 108 108 109 109 109 108 109 106 105 97 99 102 102 106 109 109 110 108 110 105 101 96 92 80 72 67 72 69 61 52 44 43 41 35 29 26 27 30 31 30 31 34 37 41
113 111 111 112 112 111 108 111 108 104 104 105 108 110 112 115 115 115 106 100 93 87 80 68 67 56 63 59 57 50 46 39 38 34 30 25 26 28 29 30 31 34 37 41 45
119 117 116 119 117 116 116 114 113 113 109 106 109 113 113 114 110 100 90 79 73 68 62 55 51 53 55 53 48 45 39 37 31 30 25 23 27 26 27 29 31 33 37 41 47
123 123 121 123 124 123 119 121 118 119 118 116 114 115 110 102 94 81 72 64 58 54 47 44 46 48 48 45 41 38 35 31 28 28 22 24 27 27 28 30 32 36 39 42 47
126 125 127 124 125 119 120 119 120 119 116 117 116 104 90 85 72 66 63 54 48 45 39 42 44 41 39 36 35 35 30 28 27 24 22 26 28 25 27 30 33 36 40 45 50
124 124 120 124 128 125 125 124 125 118 109 101 91 83 81 73 66 59 54 50 42 39 36 40 37 38 33 31 31 31 27 27 26 24 25 26 24 25 29 31 33 36 42 45 44
108 111 112 106 110 114 119 114 114 100 92 84 81 74 69 63 54 49 47 45 41 38 37 37 35 31 30 30 29 26 25 25 25 25 24 24 24 27 28 31 35 37 39 38 38
106 107 105 102 99 100 100 98 94 92 86 80 74 66 62 58 48 44 42 41 38 35 35 31 29 27 29 28 25 21 24 25 25 24 23 24 25 26 29 32 35 35 34 32 31
89 91 90 91 94 96 96 92 88 86 78 74 67 64 59 53 45 40 40 39 38 34 30 28 24 25 26 24 21 22 25 25 25 23 23 24 24 26 29 32 32 30 28 26 16
72 73 77 75 79 80 82 82 79 74 72 67 62 58 51 43 40 38 36 35 32 28 25 24 23 25 24 21 20 22 23 25 25 24 23 23 25 27 28 28 25 24 24 8 10
65 62 64 66 66 69 70 68 67 63 59 55 51 46 43 38 38 36 35 34 28 24 24 21 25 24 22 19 20 21 23 25 24 21 22 22 23 24 25 23 21 19 13 19 3
60 58 58 56 58 59 61 60 56 52 48 47 43 40 37 34 34 33 32 30 26 24 21 22 23 23 18 19 20 20 19 20 19 20 18 18 19 22 20 17 17 15 20 21 11
52 54 53 50 51 54 54 52 49 45 42 39 36 34 33 32 33 30 29 26 23 22 21 22 23 19 19 20 19 18 18 17 17 18 16 17 18 18 15 13 12 9 38 25 20
52 52 49 46 49 49 49 46 44 40 38 35 32 31 31 30 30 30 27 24 23 22 22 23 21 19 20 19 19 18 18 16 15 14 14 14 14 13 11 12 7 3 44 28 25
Wind_Direction
271 270 273 276 278 282 280 283 286 288 289 289 291 295 295 294 293 293 296 294 294 293 291 289 290 290 289 291 294 295 295 291 292 287 287 289 286 283 281 279 275 271 266 262 262
271 272 273 275 278 280 282 283 286 287 288 290 292 295 293 294 295 297 298 299 296 294 294 292 292 293 293 296 296 297 297 294 289 285 286 290 289 286 281 280 281 278 274 264 262
270 270 273 274 278 280 282 284 287 288 289 290 291 293 294 295 295 296 297 298 299 299 298 295 295 294 293 296 298 298 295 294 288 287 285 287 290 288 282 282 280 279 273 267 264
271 273 275 276 278 280 281 283 284 285 285 286 289 290 291 291 291 292 295 297 297 297 296 294 293 294 295 295 296 298 293 291 288 290 293 291 290 288 286 281 282 280 274 268 263
271 272 274 275 276 277 279 282 283 284 285 288 289 290 291 292 292 294 293 292 292 292 292 293 294 295 294 294 291 294 290 291 292 291 294 292 287 288 285 282 282 278 272 267 263
272 272 272 273 273 274 276 278 280 283 283 285 287 288 288 287 288 288 289 290 291 292 293 293 294 294 294 292 293 288 288 291 292 295 295 291 289 286 282 282 281 276 270 264 263
271 271 272 274 275 275 275 276 278 280 283 284 284 284 285 285 285 286 288 289 288 289 291 292 294 293 293 292 287 287 291 292 296 294 293 291 291 284 284 284 279 272 269 266 263
271 272 271 270 272 273 274 274 277 280 282 282 283 284 284 285 286 286 288 290 289 289 291 293 296 291 290 289 287 288 293 294 295 293 292 292 287 284 286 281 276 271 267 264 263
270 271 272 272 271 271 271 274 275 277 278 281 281 282 283 285 285 285 287 291 291 293 292 292 294 293 293 291 291 292 294 294 294 294 293 291 285 287 284 280 274 270 267 265 265
268 268 269 269 270 270 271 273 274 278 279 283 280 281 282 283 286 284 284 286 287 289 290 294 295 294 295 295 293 293 297 296 296 295 291 287 287 287 285 282 280 277 270 269 267
266 266 268 268 268 269 270 273 276 277 279 282 282 283 282 282 283 284 285 288 287 289 293 294 295 298 296 295 290 292 298 298 295 291 288 288 287 286 284 285 279 269 270 268 271
266 267 268 268 267 269 271 272 273 277 277 280 279 280 280 283 284 285 286 289 290 292 295 297 296 297 295 293 288 293 297 296 294 289 287 289 284 284 284 277 274 273 271 271 269
267 265 267 269 269 270 272 273 274 276 277 277 280 281 284 284 286 289 292 292 292 293 295 295 295 294 293 289 288 290 293 293 291 288 282 278 279 277 274 274 274 275 276 275 273
266 267 268 268 268 269 271 272 273 275 277 279 280 282 283 285 288 290 293 294 293 295 293 294 292 291 290 287 287 289 292 291 286 282 278 277 276 271 270 274 276 276 275 274 274
265 266 267 268 269 268 269 271 273 276 280 283 282 283 285 285 289 292 293 291 294 293 291 290 289 285 285 285 287 289 292 287 283 277 277 276 275 275 278 283 284 283 283 283 282
265 266 266 268 269 270 271 273 274 275 279 280 285 285 287 291 292 294 293 291 292 291 289 289 285 283 282 284 285 290 286 281 276 275 270 272 275 282 284 285 288 288 286 288 290
264 265 266 266 268 270 272 275 277 280 281 283 286 287 286 290 292 293 292 292 288 288 286 287 279 275 278 282 287 284 276 274 272 265 263 268 276 283 285 288 290 290 293 298 298
265 266 267 269 271 270 273 276 279 281 283 281 284 287 288 289 292 291 291 288 286 282 279 282 275 274 277 282 281 274 268 268 264 257 259 267 278 286 287 289 291 295 304 305 306
266 269 269 271 272 272 272 276 278 282 283 284 285 288 289 291 290 288 287 285 284 279 279 276 274 276 278 278 272 266 264 263 257 254 256 269 282 288 290 293 297 305 308 311 313
268 270 271 272 274 273 272 276 277 282 283 285 286 287 289 290 289 287 283 280 280 277 273 272 272 273 275 268 264 262 261 256 252 251 261 271 278 285 292 297 304 310 315 318 315
266 268 269 270 273 272 273 275 278 280 282 283 284 285 286 287 287 284 279 275 275 273 271 267 265 268 264 259 261 256 254 250 248 252 263 274 279 288 294 302 310 320 326 323 326
268 266 268 269 269 270 271 274 276 278 279 280 282 282 282 283 281 276 275 274 270 269 265 260 261 258 256 255 250 249 247 246 245 250 262 272 283 293 299 307 319 326 329 334 310
270 269 268 269 269 270 270 272 274 276 277 277 278 278 278 275 271 268 269 267 266 263 255 254 254 251 248 244 245 245 240 239 242 249 263 277 287 294 301 311 329 338 339 309 306
270 269 269 267 270 268 269 271 273 274 276 275 274 273 272 268 264 260 261 261 261 253 249 248 243 240 237 238 242 236 233 236 241 254 266 277 288 293 305 324 341 348 15 165 185
268 268 268 268 268 270 269 269 271 271 270 269 267 268 264 261 254 253 255 254 249 242 241 235 235 230 230 236 232 229 229 234 242 254 265 277 286 296 311 337 354 1 145 188 180
262 263 264 268 269 267 268 268 266 264 265 263 262 259 256 252 248 245 246 240 237 234 228 228 224 221 223 223 219 221 225 232 244 253 262 276 290 303 323 353 3 22 165 191 189
260 262 262 265 267 266 265 264 263 260 260 259 254 252 250 244 238 235 233 230 228 227 223 220 215 214 214 211 210 213 222 230 239 250 265 282 294 312 331 2 10 76 175 196 194
Height
10782 10779 10778 10776 10774 10772 10771 10769 10768 10766 10764 10762 10760 10757 10755 10752 10749 10746 10746 10743 10741 10738 10736 10734 10731 10728 10725 10720 10717 10715 10713 10708 10706 10699 10696 10693 10689 10687 10683 10677 10679 10677 10677 10682 10676
10772 10770 10768 10767 10765 10763 10761 10759 10757 10756 10753 10751 10749 10747 10744 10741 10738 10736 10732 10731 10729 10726 10723 10720 10718 10713 10711 10706 10702 10700 10695 10694 10689 10682 10679 10675 10672 10666 10660 10658 10654 10653 10654 10654 10656
10762 10760 10758 10756 10755 10753 10750 10748 10746 10744 10742 10740 10737 10736 10734 10730 10725 10723 10720 10717 10714 10711 10708 10705 10702 10700 10696 10693 10685 10682 10679 10675 10673 10665 10662 10661 10650 10648 10639 10632 10631 10627 10627 10629 10630
10750 10748 10746 10744 10743 10740 10737 10735 10733 10731 10729 10727 10725 10722 10721 10717 10712 10710 10707 10704 10700 10697 10693 10690 10687 10684 10680 10677 10672 10665 10659 10657 10654 10648 10641 10639 10633 10623 10619 10609 10603 10602 10602 10602 10603
10737 10735 10733 10731 10729 10728 10726 10723 10720 10717 10715 10714 10712 10709 10707 10702 10699 10695 10692 10689 10685 10681 10676 10672 10670 10667 10662 10657 10656 10649 10642 10639 10635 10628 10623 10615 10607 10603 10593 10589 10582 10578 10578 10578 10578
10722 10720 10719 10716 10715 10713 10712 10710 10706 10703 10702 10700 10698 10695 10691 10687 10683 10680 10677 10672 10668 10664 10661 10656 10654 10650 10644 10640 10637 10632 10628 10620 10614 10607 10601 10591 10584 10581 10568 10568 10562 10558 10557 10558 10559
10705 10703 10702 10701 10698 10696 10695 10694 10689 10686 10685 10682 10681 10678 10674 10670 10665 10663 10660 10657 10652 10650 10646 10638 10637 10630 10626 10620 10617 10613 10613 10604 10591 10587 10580 10566 10562 10555 10551 10546 10544 10540 10538 10540 10538
10687 10685 10684 10682 10680 10678 10677 10676 10674 10670 10668 10664 10665 10661 10657 10652 10645 10645 10642 10640 10633 10631 10629 10623 10616 10612 10607 10603 10596 10591 10589 10582 10572 10564 10557 10546 10542 10534 10532 10528 10525 10524 10524 10521 10522
10667 10666 10664 10663 10661 10659 10658 10657 10657 10654 10650 10646 10646 10641 10640 10635 10626 10627 10621 10623 10618 10611 10610 10606 10600 10592 10586 10582 10575 10570 10567 10560 10553 10545 10533 10529 10522 10520 10514 10511 10510 10509 10507 10507 10509
10644 10643 10642 10641 10640 10640 10638 10638 10636 10636 10632 10627 10626 10623 10619 10618 10610 10605 10602 10604 10602 10598 10590 10588 10581 10572 10568 10562 10552 10546 10545 10537 10531 10524 10516 10513 10508 10504 10500 10497 10497 10496 10494 10496 10496
10621 10618 10619 10618 10618 10617 10618 10617 10617 10619 10615 10609 10604 10603 10598 10598 10595 10589 10587 10582 10581 10578 10574 10564 10559 10553 10547 10542 10529 10527 10524 10520 10512 10507 10500 10500 10492 10493 10489 10485 10484 10483 10485 10484 10485
10597 10597 10596 10595 10594 10593 10594 10596 10597 10599 10605 10590 10582 10577 10578 10576 10574 10568 10570 10565 10559 10556 10553 10545 10535 10532 10525 10521 10509 10510 10504 10500 10496 10493 10489 10487 10482 10479 10479 10476 10474 10475 10474 10476 10476
10570 10572 10571 10569 10570 10570 10570 10573 10575 10575 10585 10577 10565 10558 10556 10550 10552 10547 10549 10543 10538 10531 10530 10524 10515 10509 10503 10496 10495 10494 10490 10486 10483 10481 10478 10474 10471 10470 10469 10467 10468 10468 10468 10469 10468
10542 10544 10545 10543 10544 10544 10544 10546 10549 10549 10559 10556 10553 10543 10535 10529 10527 10524 10523 10519 10516 10511 10504 10502 10494 10489 10486 10480 10479 10476 10475 10474 10471 10469 10467 10464 10462 10462 10462 10462 10462 10462 10462 10460 10457
10515 10518 10518 10516 10517 10518 10519 10521 10523 10526 10530 10536 10531 10525 10518 10511 10506 10502 10500 10495 10494 10487 10483 10483 10473 10473 10466 10466 10465 10462 10462 10462 10460 10458 10457 10455 10454 10455 10456 10456 10456 10455 10454 10450 10448
10487 10490 10492 10491 10494 10497 10495 10497 10499 10502 10506 10507 10507 10501 10498 10492 10484 10479 10476 10473 10471 10467 10465 10462 10457 10454 10452 10454 10452 10451 10452 10451 10450 10449 10448 10448 10447 10449 10450 10449 10448 10447 10444 10441 10436
10459 10462 10464 10465 10467 10469 10473 10473 10476 10481 10483 10484 10480 10478 10473 10471 10465 10461 10456 10456 10455 10451 10450 10446 10442 10441 10442 10442 10441 10441 10441 10441 10442 10442 10442 10442 10441 10442 10443 10441 10440 10437 10434 10432 10424
10431 10434 10438 10443 10444 10446 10444 10449 10451 10454 10459 10459 10457 10454 10451 10449 10446 10443 10439 10439 10439 10437 10436 10431 10428 10432 10433 10432 10432 10431 10432 10433 10434 10435 10436 10436 10435 10437 10436 10434 10432 10429 10427 10419 10412
10405 10406 10410 10415 10417 10419 10423 10425 10429 10427 10436 10432 10431 10436 10429 10430 10432 10424 10425 10423 10423 10422 10422 10419 10420 10421 10422 10422 10423 10422 10424 10426 10428 10429 10429 10430 10430 10430 10428 10427 10425 10423 10418 10410 10401
10376 10379 10383 10387 10390 10392 10396 10399 10404 10405 10411 10410 10412 10414 10412 10412 10413 10409 10409 10408 10409 10409 10410 10411 10411 10412 10412 10414 10414 10416 10418 10420 10421 10422 10423 10424 10425 10423 10422 10421 10419 10417 10411 10403 10392
10352 10354 10359 10362 10364 10367 10370 10376 10381 10383 10389 10390 10394 10395 10397 10396 10397 10396 10394 10395 10397 10399 10400 10402 10403 10404 10404 10406 10407 10410 10411 10413 10415 10416 10417 10418 10418 10418 10416 10415 10413 10410 10404 10395 10386
10328 10332 10335 10339 10342 10344 10348 10355 10361 10364 10368 10371 10375 10378 10381 10382 10382 10382 10382 10383 10385 10389 10391 10392 10394 10396 10398 10399 10401 10403 10405 10407 10409 10411 10412 10412 10414 10413 10412 10410 10408 10405 10398 10391 10380
10307 10311 10314 10317 10320 10322 10328 10333 10338 10343 10348 10352 10357 10361 10364 10367 10368 10369 10371 10372 10375 10379 10381 10384 10386 10388 10390 10393 10395 10397 10400 10402 10403 10405 10407 10408 10409 10408 10407 10406 10405 10400 10394 10383 10379
10288 10292 10294 10298 10301 10302 10308 10314 10320 10325 10331 10335 10340 10345 10348 10352 10354 10357 10359 10362 10367 10371 10373 10377 10379 10382 10384 10387 10390 10392 10394 10396 10399 10401 10403 10404 10405 10403 10403 10402 10400 10397 10393 10379 10379
10269 10275 10274 10281 10283 10287 10291 10296 10302 10309 10315 10319 10325 10330 10333 10339 10341 10345 10349 10354 10359 10362 10366 10370 10373 10376 10379 10382 10384 10387 10390 10392 10395 10397 10399 10399 10400 10399 10400 10400 10397 10395 10395 10380 10381
10251 10256 10259 10265 10269 10271 10274 10280 10287 10295 10300 10305 10311 10316 10321 10327 10329 10334 10340 10346 10351 10355 10360 10363 10367 10370 10373 10376 10380 10383 10385 10388 10391 10393 10394 10396 10397 10396 10396 10396 10393 10393 10400 10383 10383
10232 10238 10246 10253 10253 10255 10259 10266 10273 10281 10286 10292 10298 10304 10310 10315 10320 10326 10332 10338 10344 10349 10354 10357 10361 10365 10369 10372 10376 10379 10382 10384 10387 10390 10390 10392 10394 10393 10392 10392 10390 10388 10399 10386 10385